Date String (YYYY-MM-DD hh:mm:ss) UTC,Instrument flags,Ambient pressure (hPa),Sample flow (lpm),Bypass flow (lpm),Sample temperature (°C),Ambient temperature (°C),ASC tube jacket temperature (°C),LED temperature (°C),Box temperature (°C),Sample RH (%),Span deviation,Mass concentration (μg/m³),Mass concentration (μg/m³),Mass concentration (μg/m³)
DateTimeUTC,F1_M11,P_M11,Q1_M11,Q2_M11,T1_M11,T2_M11,T3_M11,T4_M11,T5_M11,U1_M11,ZSPAN_M11,X0_M11,X2_M11,X1_M11
2022-04-06 00:00:00,,0817.3,5.00,0.00,23.9,22.7,00.0,33.0,25.5,07.5,0000.0,0014.26,0003.09,0001.05
2022-04-06 00:01:00,,0817.2,4.99,0.00,23.9,22.7,00.0,33.0,25.5,07.4,0000.0,0013.57,0003.14,0001.06
2022-04-06 00:02:00,,0817.3,5.00,0.00,23.9,22.7,00.0,33.0,25.5,07.3,0000.0,0014.45,0003.20,0001.06
2022-04-06 00:03:00,,0817.3,5.01,0.00,23.9,22.7,00.0,33.0,25.5,07.4,0000.0,0014.32,0003.18,0001.06
2022-04-06 00:04:00,,0817.4,4.99,0.00,23.9,22.7,00.0,33.0,25.5,07.5,0000.0,0014.39,0003.24,0001.08
2022-04-06 00:05:00,,0817.4,5.00,0.00,23.9,22.7,00.0,33.0,25.5,07.4,0000.0,0012.96,0003.23,0001.09
2022-04-06 00:06:00,,0817.4,5.00,0.00,23.9,22.8,00.0,33.0,25.6,07.5,0000.0,0012.08,0003.23,0001.08
2022-04-06 00:07:00,,0817.4,5.00,0.00,23.9,22.8,00.0,33.0,25.5,07.2,0000.0,0011.77,0003.25,0001.08
2022-04-06 00:08:00,,0817.4,4.99,0.00,23.9,22.8,00.0,33.0,25.6,07.2,0000.0,0011.60,0003.30,0001.08
2022-04-06 00:09:00,,0817.4,4.99,0.00,24.0,22.8,00.0,33.0,25.6,07.2,0000.0,0012.05,0003.38,0001.08
2022-04-06 00:10:00,,0817.4,5.02,0.00,24.0,22.8,00.0,33.0,25.6,07.2,0000.0,0012.75,0003.36,0001.06
2022-04-06 00:11:00,,0817.4,5.00,0.00,24.0,22.8,00.0,33.0,25.6,07.2,0000.0,0013.75,0003.34,0001.05
2022-04-06 00:12:00,,0817.4,5.00,0.00,24.0,22.8,00.0,33.0,25.6,07.0,0000.0,0013.55,0003.26,0001.04
2022-04-06 00:13:00,,0817.4,5.00,0.00,23.9,22.8,00.0,33.0,25.5,07.0,0000.0,0012.58,0003.25,0001.05
2022-04-06 00:14:00,,0817.4,5.02,0.00,24.0,22.8,00.0,33.0,25.6,06.9,0000.0,0012.61,0003.28,0001.06
2022-04-06 00:15:00,,0817.5,4.99,0.00,23.9,22.8,00.0,33.0,25.6,06.8,0000.0,0013.61,0003.23,0001.05
2022-04-06 00:16:00,,0817.6,4.99,0.00,23.9,22.7,00.0,33.0,25.5,07.0,0000.0,0014.30,0003.24,0001.04
2022-04-06 00:17:00,,0817.5,4.99,0.00,23.9,22.7,00.0,33.0,25.5,06.9,0000.0,0014.52,0003.26,0001.02
2022-04-06 00:18:00,,0817.6,5.01,0.00,23.9,22.8,00.0,33.0,25.5,06.9,0000.0,0014.36,0003.30,0001.01
2022-04-06 00:19:00,,0817.6,5.00,0.00,23.9,22.8,00.0,32.9,25.5,07.0,0000.0,0014.21,0003.25,0001.01
2022-04-06 00:20:00,,0817.5,4.99,0.00,23.9,22.8,00.0,32.9,25.5,06.9,0000.0,0014.30,0003.25,0001.01
2022-04-06 00:21:00,,0817.6,5.01,0.00,23.9,22.8,00.0,32.9,25.5,06.7,0000.0,0013.90,0003.27,0001.03
2022-04-06 00:22:00,,0817.7,5.00,0.00,23.9,22.7,00.0,32.9,25.5,06.6,0000.0,0013.45,0003.31,0001.06
2022-04-06 00:23:00,,0817.7,4.99,0.00,23.9,22.7,00.0,32.9,25.5,06.8,0000.0,0013.69,0003.34,0001.06
2022-04-06 00:24:00,,0817.5,4.99,0.00,23.9,22.8,00.0,32.9,25.5,06.5,0000.0,0014.67,0003.31,0001.06
2022-04-06 00:25:00,,0817.5,5.01,0.00,23.9,22.7,00.0,32.9,25.5,06.4,0000.0,0015.17,0003.30,0001.05
2022-04-06 00:26:00,,0817.7,4.99,0.00,23.9,22.7,00.0,32.9,25.5,06.4,0000.0,0014.21,0003.27,0001.05
2022-04-06 00:27:00,,0817.8,5.00,0.00,23.8,22.7,00.0,32.9,25.5,06.5,0000.0,0013.91,0003.25,0001.04
2022-04-06 00:28:00,,0817.9,5.00,0.00,23.8,22.6,00.0,32.9,25.5,06.6,0000.0,0015.17,0003.20,0001.04
2022-04-06 00:29:00,,0817.9,5.00,0.00,23.8,22.7,00.0,32.9,25.4,06.6,0000.0,0016.40,0003.16,0001.04
2022-04-06 00:30:00,,0817.8,4.99,0.00,23.8,22.6,00.0,32.9,25.4,06.6,0000.0,0017.48,0003.21,0001.05
2022-04-06 00:31:00,,0817.8,4.99,0.00,23.8,22.6,00.0,32.9,25.5,06.4,0000.0,0017.47,0003.20,0001.06
2022-04-06 00:32:00,,0817.7,4.99,0.00,23.8,22.7,00.0,32.9,25.5,06.5,0000.0,0017.61,0003.19,0001.05
2022-04-06 00:33:00,,0817.7,5.01,0.00,23.8,22.7,00.0,32.9,25.5,06.5,0000.0,0016.91,0003.19,0001.04
2022-04-06 00:34:00,,0817.8,5.01,0.00,23.9,22.7,00.0,32.9,25.6,06.5,0000.0,0016.89,0003.23,0001.05
2022-04-06 00:35:00,,0817.8,5.00,0.00,23.9,22.7,00.0,32.9,25.5,06.5,0000.0,0015.97,0003.23,0001.05
2022-04-06 00:36:00,,0817.8,5.00,0.00,23.9,22.7,00.0,32.9,25.5,06.5,0000.0,0015.55,0003.20,0001.06
2022-04-06 00:37:00,,0817.9,4.99,0.00,23.9,22.7,00.0,32.9,25.5,06.2,0000.0,0016.83,0003.21,0001.06
2022-04-06 00:38:00,,0817.9,5.00,0.00,23.9,22.7,00.0,32.9,25.5,06.2,0000.0,0016.75,0003.19,0001.08
2022-04-06 00:39:00,,0817.9,5.02,0.00,23.9,22.7,00.0,32.9,25.5,06.3,0000.0,0016.06,0003.22,0001.08
2022-04-06 00:40:00,,0817.8,5.00,0.00,23.9,22.8,00.0,32.9,25.6,06.4,0000.0,0015.28,0003.24,0001.09
2022-04-06 00:41:00,,0817.8,4.99,0.00,23.9,22.8,00.0,32.9,25.5,06.4,0000.0,0014.90,0003.21,0001.09
2022-04-06 00:42:00,,0817.9,5.00,0.00,23.9,22.8,00.0,32.9,25.6,06.1,0000.0,0015.95,0003.21,0001.08
2022-04-06 00:43:00,,0818.0,5.00,0.00,23.9,22.8,00.0,32.9,25.6,06.1,0000.0,0015.77,0003.24,0001.07
2022-04-06 00:44:00,,0818.0,5.01,0.00,23.9,22.8,00.0,32.9,25.6,06.2,0000.0,0015.79,0003.26,0001.07
2022-04-06 00:45:00,,0818.0,5.01,0.00,23.9,22.8,00.0,32.9,25.6,06.3,0000.0,0016.03,0003.24,0001.06
2022-04-06 00:46:00,,0818.0,5.00,0.00,23.9,22.8,00.0,32.9,25.6,06.2,0000.0,0016.09,0003.25,0001.06
2022-04-06 00:47:00,,0818.0,5.00,0.00,23.9,22.8,00.0,32.9,25.5,06.2,0000.0,0017.03,0003.31,0001.05
2022-04-06 00:48:00,,0818.0,4.99,0.00,23.9,22.8,00.0,32.9,25.5,06.3,0000.0,0016.23,0003.32,0001.03
2022-04-06 00:49:00,,0818.0,5.01,0.00,23.9,22.8,00.0,32.9,25.5,06.3,0000.0,0015.99,0003.35,0001.02
2022-04-06 00:50:00,,0818.0,5.00,0.00,23.9,22.7,00.0,32.9,25.5,06.3,0000.0,0015.62,0003.34,0001.01
2022-04-06 00:51:00,,0818.1,5.00,0.00,23.9,22.7,00.0,32.9,25.5,06.5,0000.0,0015.86,0003.34,0001.01
2022-04-06 00:52:00,,0818.2,4.99,0.00,23.8,22.6,00.0,32.9,25.5,07.3,0000.0,0015.02,0003.37,0001.00
2022-04-06 00:53:00,,0818.3,5.01,0.00,23.8,22.6,00.0,32.9,25.5,07.5,0000.0,0013.69,0003.38,0001.01
2022-04-06 00:54:00,,0818.3,4.99,0.00,23.8,22.7,00.0,32.9,25.6,07.6,0000.0,0013.92,0003.38,0001.01
2022-04-06 00:55:00,,0818.3,4.99,0.00,23.9,22.8,00.0,32.9,25.6,07.7,0000.0,0013.60,0003.33,0001.01
2022-04-06 00:56:00,,0818.3,5.02,0.00,23.9,22.9,00.0,32.9,25.7,07.5,0000.0,0014.22,0003.33,0001.02
2022-04-06 00:57:00,,0818.4,5.00,0.00,23.9,22.9,00.0,32.9,25.7,07.5,0000.0,0014.23,0003.29,0001.01
2022-04-06 00:58:00,,0818.4,4.99,0.00,23.9,23.0,00.0,32.9,25.8,07.3,0000.0,0013.78,0003.23,0001.01
2022-04-06 00:59:00,,0818.4,4.99,0.00,24.0,23.0,00.0,32.9,25.9,07.4,0000.0,0013.66,0003.23,0001.03
